Content
SEND FEEDBACK

Daily
Averages
Monthly
Summary
Mexico

BALCON DIABLO, PUEBLA


Home > North America > Mexico > Puebla
Elevation: 6955 feet     Latitude: 18 53N     Longitude: 098 07W

WEATHER
 
SELECT A DAY
Number of Records: 121,150;   Date Range: 1/1/95 - 9/15/14
 
SHARE

PRINT THIS DATA

[ ← Previous Day ]
WEATHER ALMANAC - MAY 7, 2013
[ Next Day → ]
[ °C ]   °F
Weather ElementAverageHighLow
Temperature67.1 °F77 °F (1:48 pm)48.2 °F (5:43 am)
Dewpoint38.8 °F49 °F (9:50 am)30.2 °F (4:42 pm)
Humidity36.1 %71 % (7:49 am)18 % (6:40 pm)
Barometer30.20 in30.39 in (9:41 am)29.62 in (6:40 pm)
Wind Speed7.2 mph21.9 mph (6:51 pm)
Wind Gust26.5 mph (2:41 pm)
Weather ElementAverage
Visibility4.6 mi
Wind DirectionSSW (193.5 °)

Weather ElementTotal
Precipitation---
Heating Degree Days2.4 (Base 65)
Growing Degree Days12.6 (Base 50)
Averaged from 22 records on May 7, 2013
WEATHER CONDITIONS BREAKOUT
WIND DIRECTION BREAKOUT
WEATHER BY HOUR - MAY 7, 2013
[ °C ]   °F
Local TimeTemperatureDewpointHumidityBarometerVisibilityWind DirectionWind SpeedGust SpeedPrecipitationEventsConditions
5:43 AM48.2 °F35.6 °F62 %30.33 in8.0 miCalmScattered Clouds
6:47 AM48.2 °F35.6 °F62 %30.34 in2.0 miNW (310°)3.5 mphScattered Clouds
6:50 AM54.0 °F44.0 °F59 %29.88 in3.0 miCalm
7:49 AM48.2 °F39.2 °F71 %30.36 in3.0 miNW (310°)4.6 mphScattered Clouds
8:44 AM55.4 °F37.4 °F51 %30.37 in3.0 miNNW (330°)5.8 mphPartly Cloudy
9:41 AM62.6 °F41.0 °F45 %30.39 in4.0 miNNW (340°)3.5 mphPartly Cloudy
9:50 AM66.0 °F49.0 °F43 %29.96 in3.0 miSSW (210°)2.2 mphHaze
10:51 AM68.0 °F42.8 °F40 %30.38 in5.0 miSSE (160°)6.9 mphPartly Cloudy
11:46 AM71.6 °F39.2 °F31 %30.36 in5.0 miCalmScattered Clouds
12:40 PM76.0 °F45.0 °F22 %29.89 in3.0 miSouth (180°)2.2 mphHaze
12:52 PM75.2 °F39.2 °F27 %30.33 in5.0 miSouth (180°)4.6 mphMostly Cloudy
1:48 PM77.0 °F39.2 °F26 %30.31 in5.0 miSSE (150°)9.2 mphMostly Cloudy
2:41 PM77.0 °F39.2 °F26 %30.29 in5.0 miSouth (190°)11.5 mph26.5 mphMostly Cloudy
3:48 PM77.0 °F33.8 °F21 %30.26 in5.0 miSSW (200°)18.4 mphMostly Cloudy
4:42 PM75.2 °F30.2 °F19 %30.25 in6.0 miSSW (200°)16.1 mphMostly Cloudy
5:43 PM75.2 °F35.6 °F24 %30.22 in7.0 miSouth (190°)19.6 mphMostly Cloudy
6:40 PM77.0 °F41.0 °F18 %29.62 in3.0 miSSE (160°)2.2 mphHaze
6:51 PM73.4 °F35.6 °F25 %30.23 in7.0 miSouth (190°)21.9 mphMostly Cloudy
7:45 PM69.8 °F33.8 °F27 %30.26 in4.0 miSouth (170°)13.8 mphMostly Cloudy
9:41 PM66.2 °F37.4 °F35 %30.33 in7.0 miNE (40°)6.9 mphMostly Cloudy
9:50 PM71.0 °F38.0 °F19 %29.64 in3.0 miCalmPartly Cloudy
10:41 PM64.4 °F41.0 °F42 %30.36 in5.0 miNorth (360°)4.6 mphVolcanic Ash
Hourly data recorded from MMPB, located miles away from Balcon Diablo, Puebla







STORIES FROM OUR PARTNERS